Regional Weather Roundup
Issued by NWS Upton, NY

Current Version | Previous Version | Text Only | Print | Product List | Glossary On
Versions: 1 2 3 4 5 6 7 8 9 10 11 12 13 14 15 16 17 18 19 20 21 22 23 24 25 26 27
000
ASUS41 KOKX 071308
RWROKX

REGIONAL WEATHER ROUNDUP
NATIONAL WEATHER SERVICE NEW YORK NY
800 AM EST WED DEC 07 2016

NOTE: "FAIR" INDICATES FEW OR NO CLOUDS BELOW 12,000 FEET WITH NO
SIGNIFICANT WEATHER AND/OR OBSTRUCTIONS TO VISIBILITY.

NYZ071-072-176-178-NJZ106-104-071400-
NEW YORK CITY METRO AREA

CITY           SKY/WX    TMP DP  RH WIND       PRES   REMARKS
Central Park   CLOUDY    40  37  89 NE6       29.98R
Wall St Helipt CLOUDY    43  40  89 NE9       29.96R
Bronx Bot Gard NOT AVBL
LaGuardia APRT CLOUDY    42  38  85 N8        29.96R
Kennedy INTL   CLOUDY    43  38  82 N9        29.96R
Breezy Point     N/A     39 N/A N/A N8          N/A  WCI  34
Newark/Liberty CLOUDY    39  38  96 N9        29.96R WCI  33
Teterboro      CLOUDY    40  36  86 N5        29.96R FOG
$$

NYZ177-179-078>081-071400-
LONG ISLAND NEW YORK

CITY           SKY/WX    TMP DP  RH WIND       PRES   REMARKS
Jones Beach      N/A     41 N/A N/A NE12        N/A
Matinecock PT    N/A     41 N/A N/A E16         N/A
Farmingdale    CLOUDY    41  39  93 NE7       29.94S
MacArthur/ISP  CLOUDY    41  39  93 NE12      29.93S
Shirley        CLOUDY    40  40 100 VRB3      29.95R
Westhampton    CLOUDY    40  38  93 NE8       29.96R WCI  34
Southampton    NOT AVBL
Bridgehampton  NOT AVBL
East Hampton   CLOUDY    39  38  94 NE7       29.94S WCI  34
Montauk          N/A     41  39  93 N10       29.95R
$$

NYZ052-065-067-071400-
HUDSON VALLEY

CITY           SKY/WX    TMP DP  RH WIND       PRES   REMARKS
White Plains   CLOUDY    38  35  89 CALM      29.95R
Newburgh       CLOUDY    34  34 100 CALM      29.96S FOG
Montgomery     CLOUDY    35  33  92 CALM      29.95R FOG
Poughkeepsie   CLOUDY    34  33  96 CALM      29.96S FOG
Albany         CLOUDY    33  32  96 CALM      29.96R FOG
$$

NJZ001-105-106-008-010-013-015-019>022-104-071400-
NEW JERSEY

CITY           SKY/WX    TMP DP  RH WIND       PRES   REMARKS
Newark/Liberty CLOUDY    39  38  96 N9        29.96R WCI  33
Teterboro      CLOUDY    40  36  86 N5        29.96R FOG
Caldwell       CLOUDY    38  36  92 CALM      29.97R
Somerville     CLOUDY    40  37  89 CALM      29.95R
Linden         CLOUDY    39  37  89 N5        29.97R
Sussex         CLOUDY    35  35 100 CALM      29.96R
Andover          N/A     34  33  96 CALM      29.97R
Trenton        LGT RAIN  40  37  89 NW7       29.98R
Millville      CLOUDY    42  42 100 NW13      29.96R FOG
Atlantic City  CLOUDY    44  42  93 N8        29.93R
Wrightstown    CLOUDY    40  39  96 NW9       29.94R WCI  34
Toms River     CLOUDY    43  42  97 NW6       29.96R
Belmar         CLOUDY    43  42  97 NW7       29.96R
$$

PAZ047>061-062-071-071400-
EASTERN PENNSYLVANIA

CITY           SKY/WX    TMP DP  RH WIND       PRES   REMARKS
Philadelphia   CLOUDY    41  37  87 NW8G18    30.00R FOG
Allentown      CLOUDY    38  36  92 W5        30.00R FOG     WCI  34
Scranton       FOG       35  34  96 W3        29.96R VSB 1/4
$$

CTZ002-004>006-009-010-012-RIZ004-006-007-MAZ004-011-015-071400-
SOUTHERN NEW ENGLAND
 IN CT

CITY           SKY/WX    TMP DP  RH WIND       PRES   REMARKS
Bradley INTL   DRIZZLE   35  33  92 N6        29.97F FOG     WCI  30
Hartford       CLOUDY    35  34  96 N6        29.98S FOG     WCI  30
Danbury        CLOUDY    35  33  92 NE5       29.96R WCI  31
Wtrbury/Oxford CLOUDY    34  30  86 E5        29.95S FOG     WCI  30
Bridgeport     CLOUDY    39  36  87 N9        29.96R WCI  33
Meriden        CLOUDY    37  34  89 N5        29.97S WCI  33
New Haven      CLOUDY    37  36  96 N7        29.96R WCI  32
Chester        CLOUDY    36  36 100 N7        29.95S FOG     WCI  30
Groton         CLOUDY    41  38  89 N9        29.95S
Wilimantic     CLOUDY    37  36  96 CALM      29.98S FOG

 IN RI

CITY           SKY/WX    TMP DP  RH WIND       PRES   REMARKS
Providence     LGT RAIN  38  35  89 N7        29.97S FOG     WCI  33
Block Island   LGT RAIN  41  40  96 N10       29.95R FOG
Westerly       CLOUDY    38  35  89 N7        29.96S FOG     WCI  33
 IN MA

CITY           SKY/WX    TMP DP  RH WIND       PRES   REMARKS
Boston         LGT RAIN  39  38  96 NW7       29.99R FOG     WCI  34
Worcester      CLOUDY    32  30  92 NW3       29.95R
Westfield      CLOUDY    33  33 100 CALM      29.97S FOG
Provincetown   CLOUDY    42  37  82 E8        29.95R
Nantucket      CLOUDY    43  38  82 NE10      29.90R
$$

ANZ330-335-338-340-345-350-353-355-071400-
COASTAL MARINE OBSERVATIONS


STATION/POSITION TIME  SKY/WX   TEMP    WIND        PRES    VSBY  WAVE
                                AIR SEA DIR/SP/G                  HT/PER
                 (UTC)          (F)     (DEG/KT/KT) (MB)    (MI)  (FT/S)
NY HARB ENTRANCE 1150            45 53   40/ 17/ 19 1012.8          7/ 8
20 S FIRE ISLAND 1150            47 54   60/ 16/ 17 1012.3          8/ 7
GREAT SOUTH BAY  1230            41 43                N/A
23 SSW MONTAUK P 1150            45 54   50/ 16/ 17 1013.1          7/ 6
15 E BARNEGAT LI 1230               54                N/A           8/ 8
HUDSON CANYON    1150            51 58              1011.0         10/ 8
KINGS POINT      1230            40 48              1013.6
EXECUTION ROCKS  1245            41      40/ 12/ 16   N/A
CENTRAL LI SOUND 1230            40 50   40/ 14/ 17   N/A           2/ 4
EASTERN LI SOUND NOT AVBL
ROBBINS REEF     1230            40      10/  8/  9 1014.1
$$


>>>>>>>>>>>>>>>>>>>>>>>>>>>> KEY <<<<<<<<<<<<<<<<<<<<<<<<<<<
>                                                          <
>     SKY/WX - Sky Condition/Present Weather               <
>     TMP    - Temperature in Fahrenheit                   <
>     DP     - Dew Point in Fahrenheit                     <
>     RH     - Relative Humidity in Percent                <
>     WIND   - Direction (from) and Speed in MPH           <
>     PRES   - Mean Sea Level Pressure (inches of Hg)      <
>     WCI    - Wind Chill Index                            <
>     VSB    - VISIBILITY IN MILES                         <
>     HX     - HEAT INDEX                                  <
>     TC     - TEMPERATURE IN CELSIUS                      <
>     VRB    - VARIABLE WIND DIRECTION                     <
>                                                          <
>>>>>>>>>>>>>>>>>>>>>>>>>>>> KEY <<<<<<<<<<<<<<<<<<<<<<<<<<<




USA.gov is the U.S. government's official web portal to all federal, state and local government web resources and services.